"Pseudo-MPEC" for P10OArB

Created 2019 Jun 15 19:07:53 UT using Find_Orb

Click here for an explanation of pseudo-MPECs

 
 Astrometry: 
     P10OArB  C2019 05 25XX_V%J?\9E'\gA([1OKAgF.rGC4FGlLZ,\_0Uu$!#t7D;tY'#+HDF51
     P10OArB  C2019 05 25QWpxT*xVPJ66`OGKK=NE.L:(+A_jD)AUSt/]r?4wUJ]+KyVPp^u%F51
     P10OArB  C2019 05 25djaIe!:/*5d^cNu6mc3#hpb9Jrj@0?yt/;wuk^'#8DQ4ZxwGU?=YF51
     P10OArB  C2019 06 02B5#EBps,1q[Mbs'Cv@B'._$5%BS^h;Zh7P;w;2XBO,JL(DndRKDkF51
     P10OArB  C2019 06 02OYpK2.CUI#w;.88#KKFTWpZ9nO#AstrometryFTGk]'bbmJ+HNbEF51
     P10OArB  C2019 06 02ip^'tcRtqcDQ#8ZZ8h()KcE3Vredacted;pYD'$clickgQH%%UyPF51
     P10OArB  C2019 06 02C(u5VM+8WV!j1LbjJCo7ue`Tko.u3Q#/At?n%W%[X(%C.B4Ye]J:F51
     P10OArB KC2019 06 03HdomY#im.FVO@uDERI[d+:an\uMXQ'1tOhcvQdR*'$*3(eQgY9[4J04
     P10OArB KC2019 06 03bG:4N0_h@\?*h4pXr]:]5(q(=3p+=t?E*?HibB%[LH5:rn3U.JDjJ04
     P10OArB  C2019 06 04.27042 15 42 31.42 -30 36 56.4    ~647M       VNEOCPV06
     P10OArB  C2019 06 04.27439 15 42 31.08 -30 36 56.1    ~647M       VNEOCPV06
     P10OArB  C2019 06 04.27836 15 42 30.76 -30 36 55.1    ~647M       VNEOCPV06
     P10OArB  C2019 06 08AL..Ch9`b3,F,.iHPo*Vqspig]DP.itOo\88JQSf9fKGVMQ%1-v+F51
     P10OArB  C2019 06 08Wer;cIRQRH3j:8vmXn,Es-!G8XEVc#A6*lA7Cs9WSo:!Mb-L\oM)F51
     P10OArB KC2019 06 11--a-=K0^;(C-I4QvM.nZWb[^KC1-l86yFQ,=pVqxy%!g0RnrFNOc291
     P10OArB KC2019 06 11dghere4aforxASkWRk.9.eexplanation/d6b=;=*%IxwJ'3EnG,291

Station data:
(291) LPL/Spacewatch II  (N31.961669 W111.599905)  US/Arizona.  Observers J.
   V. Scotti, R. S. McMillan. 1.8-m f/2.7 reflector + CCD.
(F51) Pan-STARRS 1, Haleakala  (N20.707235 W156.255910)  US/Hawaii.
   Observers N. Primak, A. Schultz, S. Watters, J. Thiel, T. Goggia. Measurer
   PS1 Science Consortium. 1.8-m Ritchey-Chrétien + CCD.
(J04) ESA Optical Ground Station, Tenerife  (N28.300924 W16.511830)  Canary
   Islands (Spain).  Observer D. Abreu. Measurers M. Micheli, D. Koschny, E.
   Schwab, M. Busch, A. Knöfel. 1.0-m f/4.4 reflector + CCD.
(V06) Catalina Sky Survey-Kuiper  (N32.416847 W110.732550)  US/Arizona.
   Observers T. A. Pruyne, B. M. Africano, E. J. Christensen, G. A. Farneth,
   D. C. Fuls, A. R. Gibbs, A. D. Grauer, H. Groeller, J. A. Johnson, R. A.
   Kowalski, S. M. Larson, G. J. Leonard, R. L. Seaman, F. C. Shelly. 1.55-m
   reflector + CCD.

Orbital elements:  P10OArB
   Perihelion 2019 Oct 28.863773 +/- 0.161 TT = 20:43:49 (JD 2458785.363773)
Epoch 2019 Jun 11.0 TT = JDT 2458645.5   Earth MOID: 0.4347   Ma: 0.0624
M 314.27662309 +/- 0.044            (J2000 ecliptic)          AutoNEOCP
n   0.32691365 +/- 0.000149         Peri.  343.08970 +/- 0.018
a   2.08695944 +/- 0.000634         Node   345.45771 +/- 0.033
e   0.3074748 +/- 0.000247          Incl.    4.78567 +/- 0.0030
P   3.01                   H 20.7   G  0.15   U  6.8  
q 1.44527180 +/- 0.000409    Q 2.72864707 +/- 0.00123
From 16 observations 2019 May 25-June 11; mean residual 0".22
Residuals in arcseconds: 
190525 F51  .18+  .09+    190602 F51  .00   .07+    190608 F51  .20-  .09+    
190525 F51  .25-  .09-    190603 J04  .32+  .26+    190608 F51  .21+  .05+    
190525 F51  .06+  .04+    190603 J04  .26+  .04+    190611 291  .10-  .53+    
190602 F51  .03+  .20-    190604 V06  .15-  .22+    190611 291  .10+  .64-    
190602 F51  .18-  .05-    190604 V06  .28-  .25-    
190602 F51  .06+  .25-    190604 V06  .16-  .03-    

Ephemerides (geocentric):
Date (UTC) HH   RA              Dec         delta   r     elong  mag " sig PA
---- -- -- --  -------------   -----------  ------ ------ -----  --- ---- ---
2019 06 15 19  15 29 04.636   -29 49 39.18  .79942 1.7594 151.3 22.3 .625  38
2019 06 15 20  15 29 02.186   -29 49 27.36  .79944 1.7593 151.3 22.3 .630  38
2019 06 15 21  15 28 59.741   -29 49 15.53  .79945 1.7591 151.2 22.3 .636  39
2019 06 15 22  15 28 57.300   -29 49 03.70  .79947 1.7590 151.2 22.3 .641  39
2019 06 15 23  15 28 54.862   -29 48 51.87  .79949 1.7588 151.1 22.3 .646  39
2019 06 16 00  15 28 52.429   -29 48 40.02  .79950 1.7586 151.1 22.3 .652  39
2019 06 16 01  15 28 50.000   -29 48 28.17  .79952 1.7585 151.0 22.3 .657  39
2019 06 16 02  15 28 47.575   -29 48 16.31  .79954 1.7583 151.0 22.3 .662  39
2019 06 16 03  15 28 45.154   -29 48 04.44  .79956 1.7582 151.0 22.3 .668  39
2019 06 16 04  15 28 42.737   -29 47 52.57  .79958 1.7580 150.9 22.4 .673  40
2019 06 16 05  15 28 40.324   -29 47 40.69  .79960 1.7579 150.9 22.4 .679  40
2019 06 16 06  15 28 37.916   -29 47 28.81  .79962 1.7577 150.8 22.4 .684  40
2019 06 16 07  15 28 35.511   -29 47 16.92  .79964 1.7576 150.8 22.4 .690  40
2019 06 16 08  15 28 33.111   -29 47 05.02  .79966 1.7574 150.7 22.4 .696  40
2019 06 16 09  15 28 30.714   -29 46 53.11  .79968 1.7572 150.7 22.4 .701  40
2019 06 16 10  15 28 28.322   -29 46 41.20  .79970 1.7571 150.6 22.4 .707  40
2019 06 16 11  15 28 25.934   -29 46 29.28  .79972 1.7569 150.6 22.4 .712  41
2019 06 16 12  15 28 23.551   -29 46 17.36  .79974 1.7568 150.5 22.4 .718  41
2019 06 16 13  15 28 21.171   -29 46 05.43  .79976 1.7566 150.5 22.4 .724  41
2019 06 16 14  15 28 18.796   -29 45 53.49  .79978 1.7565 150.5 22.4 .730  41
2019 06 16 15  15 28 16.424   -29 45 41.55  .79980 1.7563 150.4 22.4 .735  41
2019 06 16 16  15 28 14.057   -29 45 29.60  .79983 1.7562 150.4 22.4 .741  41
2019 06 16 17  15 28 11.694   -29 45 17.65  .79985 1.7560 150.3 22.4 .747  41
2019 06 16 18  15 28 09.336   -29 45 05.69  .79987 1.7558 150.3 22.4 .753  41
2019 06 16 19  15 28 06.981   -29 44 53.72  .79990 1.7557 150.2 22.4 .759  42
2019 06 16 20  15 28 04.631   -29 44 41.75  .79992 1.7555 150.2 22.4 .765  42
2019 06 16 21  15 28 02.285   -29 44 29.77  .79994 1.7554 150.1 22.4 .770  42
2019 06 16 22  15 27 59.943   -29 44 17.78  .79997 1.7552 150.1 22.4 .776  42
2019 06 16 23  15 27 57.605   -29 44 05.79  .79999 1.7551 150.0 22.4 .782  42
2019 06 17 00  15 27 55.272   -29 43 53.80  .80002 1.7549 150.0 22.4 .788  42
2019 06 17 01  15 27 52.943   -29 43 41.80  .80004 1.7548 150.0 22.4 .794  42
2019 06 17 02  15 27 50.618   -29 43 29.79  .80007 1.7546 149.9 22.4 .801  42
2019 06 17 03  15 27 48.297   -29 43 17.78  .80009 1.7544 149.9 22.4 .807  43
2019 06 17 04  15 27 45.980   -29 43 05.76  .80012 1.7543 149.8 22.4 .813  43
2019 06 17 05  15 27 43.668   -29 42 53.73  .80014 1.7541 149.8 22.4 .819  43
2019 06 17 06  15 27 41.360   -29 42 41.71  .80017 1.7540 149.7 22.4 .825  43
2019 06 17 07  15 27 39.057   -29 42 29.67  .80020 1.7538 149.7 22.4 .831  43
2019 06 17 08  15 27 36.757   -29 42 17.63  .80022 1.7537 149.6 22.4 .837  43
2019 06 17 09  15 27 34.462   -29 42 05.59  .80025 1.7535 149.6 22.4 .844  43
2019 06 17 10  15 27 32.171   -29 41 53.54  .80028 1.7534 149.6 22.4 .850  43
2019 06 17 11  15 27 29.885   -29 41 41.48  .80031 1.7532 149.5 22.4 .856  44
2019 06 17 12  15 27 27.603   -29 41 29.42  .80034 1.7531 149.5 22.4 .863  44
2019 06 17 13  15 27 25.325   -29 41 17.35  .80036 1.7529 149.4 22.4 .869  44
2019 06 17 14  15 27 23.051   -29 41 05.28  .80039 1.7527 149.4 22.4 .875  44
2019 06 17 15  15 27 20.782   -29 40 53.21  .80042 1.7526 149.3 22.4 .882  44
2019 06 17 16  15 27 18.517   -29 40 41.12  .80045 1.7524 149.3 22.4 .888  44
2019 06 17 17  15 27 16.256   -29 40 29.04  .80048 1.7523 149.2 22.4 .895  44
2019 06 17 18  15 27 14.000   -29 40 16.95  .80051 1.7521 149.2 22.4 .901  44